RH
84 89 90 91 88 88 90 88 84 90 93 93 94 91 93 97 92 93 98 97 90 95
85 86 88 88 86 86 84 74 79 88 92 94 94 93 91 94 93 90 91 98 98 94
84 86 86 88 88 85 82 81 83 85 88 92 94 94 93 92 88 85 93 94 91 91
81 86 86 86 88 88 84 80 81 84 80 89 92 94 94 91 87 89 91 94 95 90
79 86 89 88 88 88 85 80 79 83 79 80 89 92 87 87 89 91 88 88 92 92
79 82 89 89 88 87 88 82 80 81 84 82 86 94 81 82 84 83 85 88 89 91
82 81 82 87 89 88 89 86 84 83 84 84 74 80 81 78 86 85 82 85 87 78
84 79 77 81 85 88 88 87 86 84 85 86 77 72 76 78 84 89 88 86 84 84
82 78 76 79 84 87 89 90 89 90 90 90 69 76 68 74 86 86 88 91 88 83
82 77 75 77 82 86 91 92 91 92 91 92 90 74 68 65 89 90 90 90 92 85
85 77 73 77 79 86 91 91 92 91 90 92 82 77 74 65 88 90 88 88 90 92
89 78 71 71 78 83 90 89 90 87 88 91 90 75 76 70 86 90 89 84 87 86
90 80 75 71 76 80 88 86 86 85 88 82 89 80 74 69 85 91 88 86 84 75
86 79 77 77 77 81 81 83 84 87 90 90 86 92 72 61 80 91 86 90 91 89
Wind_Speed
5 3 4 4 4 4 3 5 5 7 6 7 7 7 6 4 5 6 5 8 8 4
5 5 5 6 4 4 5 5 7 7 7 7 6 6 7 5 6 6 6 6 6 5
5 4 5 5 6 6 6 6 6 7 6 6 6 6 5 5 7 7 6 5 7 6
5 5 5 5 5 6 6 6 6 7 8 6 7 7 6 6 6 6 7 7 7 8
4 4 5 6 6 6 6 6 6 6 8 8 6 7 6 6 6 6 8 8 8 8
5 4 5 6 6 6 6 6 6 5 6 9 8 6 6 6 5 6 6 7 8 8
4 5 5 6 6 6 6 6 6 6 6 6 9 9 4 5 6 6 6 6 6 9
5 5 5 6 6 5 6 5 6 6 7 6 7 7 3 4 5 5 6 7 7 7
5 5 6 6 6 6 6 6 6 6 6 7 7 18 13 8 5 6 5 6 7 7
5 5 6 6 6 6 6 5 6 6 6 7 7 16 13 13 4 5 6 6 6 7
4 5 5 5 5 5 4 5 4 5 6 6 6 15 18 8 4 4 6 6 6 6
4 5 5 5 5 4 4 4 4 4 6 6 7 14 16 9 4 5 6 6 6 5
4 4 5 5 5 3 3 4 4 5 5 8 7 12 13 10 3 5 5 6 6 12
5 6 6 5 3 3 4 5 5 5 6 6 6 8 13 14 2 2 3 4 5 5
Wind_Direction
329 315 306 308 315 308 297 304 303 322 328 328 326 333 329 327 337 341 346 345 341 334
329 334 320 314 300 303 306 319 328 323 330 327 322 331 335 340 336 345 351 333 325 325
308 314 310 316 323 314 310 324 325 328 325 327 326 329 339 333 341 353 341 340 333 337
327 321 326 315 314 308 307 326 329 327 322 325 331 333 339 333 347 347 337 340 338 339
304 318 327 319 314 315 315 317 314 326 330 335 330 327 343 338 347 348 344 339 343 339
311 322 311 309 315 316 316 318 324 331 335 331 330 325 340 336 342 347 341 337 338 330
304 303 305 302 307 318 324 329 325 329 321 319 328 317 318 332 344 339 340 336 339 333
303 304 308 311 319 324 323 329 327 340 343 330 323 320 252 2 352 344 337 337 335 331
318 316 312 316 328 331 327 338 338 341 343 334 334 335 9 34 352 338 339 331 324 328
318 315 320 321 332 337 327 327 332 345 342 332 325 340 360 12 345 331 327 325 322 324
315 312 320 328 334 330 325 327 322 327 332 327 316 338 340 6 347 334 325 320 315 308
307 305 316 319 319 307 313 314 322 312 320 328 312 334 330 6 344 340 333 322 327 323
271 267 276 284 295 283 295 292 310 320 325 315 318 325 329 350 346 349 338 329 335 346
237 236 238 250 238 260 288 305 311 315 314 317 317 313 331 344 5 309 335 335 329 326